KA4JMC Weather Reports


Display with metric or nautical units.
time (UTC)temp
F
wind
direction
speed
MPH
gust
MPH
rain 1hr
in
rain 24hr
in
rain mn
in
humidity
%
barometer
mb
20260505092515 51 344 0.0 0.0 0.00 0.00 0.00 980.8
20260505092022 51 27 0.0 0.0 0.00 0.00 0.00 980.8
20260505091514 51 294 2.0 0.0 0.00 0.00 0.00 979.8
20260505091019 51 357 3.0 5.0 0.00 0.00 0.00 979.8
20260505090522 51 353 0.0 0.0 0.00 0.00 0.00 979.8
20260505090017 52 3 0.0 0.0 0.00 0.00 0.00 979.8
20260505085519 52 320 0.0 0.0 0.00 0.00 0.00 979.8
20260505085034 52 357 3.0 3.0 0.00 0.00 0.00 979.8
20260505084515 52 308 0.0 0.0 0.00 0.00 0.00 978.8
20260505084034 52 320 0.0 0.0 0.00 0.00 0.00 978.8
20260505083514 52 0 0.0 0.0 0.00 0.00 0.00 978.8
20260505083014 53 339 0.0 0.0 0.00 0.00 0.00 978.8
20260505082518 53 343 0.0 3.0 0.00 0.00 0.00 978.8
20260505082016 53 311 4.0 2.0 0.00 0.00 0.00 978.8
20260505081514 53 288 0.0 0.0 0.00 0.00 0.00 978.8
20260505081040 54 357 3.0 3.0 0.00 0.00 0.00 978.8
20260505080514 54 331 4.0 4.0 0.00 0.00 0.00 978.8
20260505080018 54 26 4.0 3.0 0.00 0.00 0.00 978.8
20260505075514 55 322 0.0 2.0 0.00 0.00 0.00 978.8
20260505075037 55 341 4.0 5.0 0.00 0.00 0.00 978.8
20260505074514 55 34 3.0 0.0 0.00 0.00 0.00 978.8
20260505074015 55 6 3.0 3.0 0.00 0.00 0.00 978.8
20260505073513 56 326 0.0 0.0 0.00 0.00 0.00 978.8
20260505073014 56 321 0.0 0.0 0.00 0.00 0.00 977.8
20260505072518 56 329 3.0 0.0 0.00 0.00 0.00 977.8
20260505072013 56 295 0.0 0.0 0.00 0.00 0.00 977.8
20260505071517 56 327 0.0 0.0 0.00 0.00 0.00 977.8
20260505071016 56 322 0.0 0.0 0.00 0.00 0.00 977.8
20260505070515 56 326 2.0 4.0 0.00 0.00 0.00 977.8
20260505070035 56 340 0.0 0.0 0.00 0.00 0.00 977.8
20260505065513 57 342 0.0 0.0 0.00 0.00 0.00 977.8
20260505065013 57 330 0.0 0.0 0.00 0.00 0.00 977.8
20260505064513 57 334 0.0 0.0 0.00 0.00 0.00 977.8
20260505064013 57 300 0.0 0.0 0.00 0.00 0.00 977.8
20260505063514 57 301 0.0 0.0 0.00 0.00 0.00 977.8
20260505063014 57 349 0.0 9.0 0.00 0.00 0.00 977.8
20260505062517 57 329 2.0 0.0 0.00 0.00 0.00 977.8
20260505062014 57 227 0.0 3.0 0.00 0.00 0.00 977.8
20260505061535 58 331 0.0 4.0 0.00 0.00 0.00 976.8
20260505061014 58 309 2.0 0.0 0.00 0.00 0.00 976.8
20260505060517 58 341 4.0 5.0 0.00 0.00 0.00 976.8
20260505060013 58 334 3.0 4.0 0.00 0.00 0.00 976.8
20260505055515 58 342 0.0 2.0 0.00 0.00 0.00 976.8
20260505055014 58 328 0.0 0.0 0.00 0.00 0.00 976.8
20260505054514 58 342 0.0 4.0 0.00 0.00 0.00 976.8
20260505054013 58 315 0.0 0.0 0.00 0.00 0.00 976.8
20260505053513 58 324 0.0 2.0 0.00 0.00 0.00 976.8
20260505053035 58 236 0.0 0.0 0.00 0.00 0.00 976.8
20260505052520 58 285 2.0 0.0 0.00 0.00 0.00 976.8
20260505052013 59 339 0.0 0.0 0.00 0.00 0.00 976.8
20260505051521 59 326 0.0 4.0 0.00 0.00 0.00 975.8
20260505051013 59 297 0.0 5.0 0.00 0.00 0.00 975.8
20260505050519 59 329 0.0 0.0 0.00 0.00 0.00 975.8
20260505041513 61 321 0.0 0.0 0.00 0.00 0.00 975.8
20260505041014 61 346 0.0 3.0 0.00 0.00 0.00 975.8
20260505040515 61 313 0.0 3.0 0.00 0.00 0.00 975.8
20260505040017 62 281 0.0 0.0 0.00 0.00 0.00 975.8
20260505035540 62 317 2.0 0.0 0.00 0.00 0.00 975.8
20260505035035 62 240 0.0 0.0 0.00 0.00 0.00 975.8
20260505034518 62 264 3.0 0.0 0.00 0.00 0.00 975.8
20260505034014 62 266 0.0 5.0 0.00 0.00 0.00 975.8
20260505033513 62 332 0.0 0.0 0.00 0.00 0.00 975.8
20260505033015 62 279 0.0 0.0 0.00 0.00 0.00 975.8
20260505032513 62 167 0.0 3.0 0.00 0.00 0.00 975.8
20260505032014 63 329 0.0 0.0 0.00 0.00 0.00 975.8
20260505031517 62 325 0.0 0.0 0.00 0.00 0.00 975.8
20260505031014 63 244 0.0 0.0 0.00 0.00 0.00 975.8
20260505030516 63 258 0.0 3.0 0.00 0.00 0.00 975.8
20260505030012 63 225 0.0 0.0 0.00 0.00 0.00 975.8
20260505025514 63 221 0.0 0.0 0.00 0.00 0.00 975.8
20260505025013 63 222 0.0 0.0 0.00 0.00 0.00 975.8
20260505024520 64 235 0.0 4.0 0.00 0.00 0.00 975.8
20260505024014 64 246 0.0 0.0 0.00 0.00 0.00 975.8
20260505023519 64 226 0.0 0.0 0.00 0.00 0.00 975.8
20260505023015 64 234 4.0 0.0 0.00 0.00 0.00 975.8
20260505022516 64 224 4.0 4.0 0.00 0.00 0.00 975.8
20260505022013 64 227 0.0 0.0 0.00 0.00 0.00 975.8
20260505021514 64 204 2.0 4.0 0.00 0.00 0.00 974.8
20260505021014 65 220 2.0 2.0 0.00 0.00 0.00 974.8
20260505020516 65 177 0.0 6.0 0.00 0.00 0.00 974.8
20260505020016 65 203 4.0 0.0 0.00 0.00 0.00 974.8
20260505015513 65 194 4.0 4.0 0.00 0.00 0.00 974.8
20260505015013 65 235 4.0 0.0 0.00 0.00 0.00 974.8
20260505014514 65 224 4.0 3.0 0.00 0.00 0.00 973.8
20260505014014 65 181 4.0 5.0 0.00 0.00 0.00 973.8
20260505013514 66 206 2.0 2.0 0.00 0.00 0.00 973.8
20260505013014 66 183 4.0 3.0 0.00 0.00 0.00 973.8
20260505012519 66 161 5.0 9.0 0.00 0.00 0.00 973.8
20260505012013 66 169 0.0 2.0 0.00 0.00 0.00 973.8
20260505011514 66 183 5.0 8.0 0.00 0.00 0.00 974.8
20260505011014 66 179 4.0 2.0 0.00 0.00 0.00 974.8
20260505010514 67 185 0.0 11.0 0.00 0.00 0.00 974.8
20260505010016 67 196 4.0 5.0 0.00 0.00 0.00 973.8
20260505005519 67 171 3.0 3.0 0.00 0.00 0.00 973.8
20260505005013 67 232 0.0 0.0 0.00 0.00 0.00 973.8
20260505004513 67 192 3.0 0.0 0.00 0.00 0.00 972.8
20260505004014 67 209 4.0 3.0 0.00 0.00 0.00 972.8
20260505003516 68 177 3.0 3.0 0.00 0.00 0.00 972.8
20260505003015 68 190 0.0 0.0 0.00 0.00 0.00 972.8
20260505002514 68 168 0.0 0.0 0.00 0.00 0.00 972.8
20260505002025 69 191 2.0 3.0 0.00 0.00 0.00 972.8
20260505001517 69 198 2.0 5.0 0.00 0.00 0.00 972.8
20260505001019 69 238 4.0 3.0 0.00 0.00 0.00 972.8
20260505000515 69 228 4.0 5.0 0.00 0.00 0.00 972.8
20260505000042 69 239 6.0 7.0 0.00 0.00 0.00 972.8
20260504235534 69 215 4.0 8.0 0.00 0.00 0.00 972.8
20260504235019 69 214 4.0 0.0 0.00 0.00 0.00 972.8
20260504234517 69 235 0.0 4.0 0.00 0.00 0.00 972.8
20260504234014 69 225 2.0 3.0 0.00 0.00 0.00 972.8
20260504233523 69 194 0.0 0.0 0.00 0.00 0.00 972.8
20260504233014 69 232 2.0 3.0 0.00 0.00 0.00 972.8
20260504232513 69 216 2.0 5.0 0.00 0.00 0.00 972.8
20260504232014 68 275 4.0 5.0 0.00 0.00 0.00 972.8
20260504231515 68 213 4.0 3.0 0.00 0.00 0.00 973.8
20260504231014 67 208 8.0 8.0 0.00 0.00 0.00 973.8
20260504230539 67 176 0.0 6.0 0.00 0.00 0.00 973.8
20260504230016 67 185 0.0 0.0 0.00 0.00 0.00 973.8
20260504225515 67 211 0.0 0.0 0.00 0.00 0.00 973.8
20260504225014 68 205 4.0 4.0 0.00 0.00 0.00 973.8
20260504224513 68 200 4.0 4.0 0.00 0.00 0.00 973.8
20260504224013 70 202 6.0 0.0 0.00 0.00 0.00 973.8
20260504223534 72 180 5.0 8.0 0.00 0.00 0.00 973.8
20260504223026 74 350 8.0 9.0 0.00 0.00 0.00 973.8
20260504222513 75 216 4.0 6.0 0.00 0.00 0.00 973.8
20260504222014 75 216 0.0 0.0 0.00 0.00 0.00 973.8
20260504221514 76 233 4.0 4.0 0.00 0.00 0.00 973.8
20260504221014 76 222 2.0 2.0 0.00 0.00 0.00 973.8
20260504220517 76 206 4.0 3.0 0.00 0.00 0.00 973.8
20260504220014 76 197 2.0 3.0 0.00 0.00 0.00 973.8
20260504215514 76 332 7.0 8.0 0.00 0.00 0.00 973.8
20260504215015 76 235 6.0 6.0 0.00 0.00 0.00 973.8
20260504214513 77 214 6.0 6.0 0.00 0.00 0.00 973.8
20260504214015 77 230 4.0 7.0 0.00 0.00 0.00 973.8
20260504213515 78 335 4.0 2.0 0.00 0.00 0.00 973.8
20260504213021 77 224 4.0 8.0 0.00 0.00 0.00 974.8
20260504212517 77 201 5.0 8.0 0.00 0.00 0.00 974.8
20260504212017 77 224 4.0 7.0 0.00 0.00 0.00 974.8
20260504211514 77 249 5.0 6.0 0.00 0.00 0.00 974.8
20260504211013 78 207 5.0 3.0 0.00 0.00 0.00 974.8
20260504210517 79 18 8.0 5.0 0.00 0.00 0.00 974.8
20260504210014 79 223 3.0 6.0 0.00 0.00 0.00 974.8
20260504205514 79 225 6.0 11.0 0.00 0.00 0.00 974.8
20260504205035 78 230 6.0 8.0 0.00 0.00 0.00 974.8
20260504204515 79 137 4.0 5.0 0.00 0.00 0.00 973.8
20260504204016 79 253 4.0 0.0 0.00 0.00 0.00 973.8
20260504203515 79 215 2.0 0.0 0.00 0.00 0.00 973.8
20260504203022 79 327 4.0 4.0 0.00 0.00 0.00 973.8
20260504202514 80 58 6.0 4.0 0.00 0.00 0.00 973.8
20260504202019 80 172 6.0 7.0 0.00 0.00 0.00 973.8
20260504201519 80 195 3.0 5.0 0.00 0.00 0.00 974.8
20260504201019 80 220 3.0 3.0 0.00 0.00 0.00 974.8
20260504200515 80 196 4.0 9.0 0.00 0.00 0.00 974.8
20260504200036 80 210 5.0 7.0 0.00 0.00 0.00 974.8
20260504195514 80 270 7.0 5.0 0.00 0.00 0.00 974.8
20260504195014 80 233 3.0 4.0 0.00 0.00 0.00 974.8
20260504194513 80 203 4.0 8.0 0.00 0.00 0.00 974.8
20260504194024 79 224 4.0 3.0 0.00 0.00 0.00 974.8
20260504193517 80 203 6.0 6.0 0.00 0.00 0.00 974.8
20260504193014 80 334 5.0 8.0 0.00 0.00 0.00 974.8
20260504192534 79 167 3.0 3.0 0.00 0.00 0.00 974.8
20260504192017 79 321 4.0 12.0 0.00 0.00 0.00 974.8
20260504191513 80 285 6.0 8.0 0.00 0.00 0.00 974.8
20260504191014 80 186 4.0 3.0 0.00 0.00 0.00 974.8
20260504190514 80 153 7.0 4.0 0.00 0.00 0.00 974.8
20260504190023 80 189 5.0 3.0 0.00 0.00 0.00 974.8
20260504185518 80 248 6.0 4.0 0.00 0.00 0.00 974.8
20260504185035 80 180 5.0 5.0 0.00 0.00 0.00 974.8
20260504184513 80 183 6.0 7.0 0.00 0.00 0.00 974.8
20260504184013 80 279 6.0 8.0 0.00 0.00 0.00 974.8
20260504183514 80 253 3.0 5.0 0.00 0.00 0.00 974.8
20260504183036 79 230 4.0 3.0 0.00 0.00 0.00 974.8
20260504182515 79 245 6.0 2.0 0.00 0.00 0.00 974.8
20260504182017 79 284 7.0 11.0 0.00 0.00 0.00 974.8
20260504181536 80 188 8.0 8.0 0.00 0.00 0.00 974.8
20260504181042 79 227 7.0 6.0 0.00 0.00 0.00 974.8
20260504180513 79 224 0.0 4.0 0.00 0.00 0.00 974.8
20260504180015 79 220 3.0 8.0 0.00 0.00 0.00 974.8
20260504175513 79 177 4.0 10.0 0.00 0.00 0.00 974.8
20260504175013 78 219 4.0 6.0 0.00 0.00 0.00 974.8
20260504174517 79 244 8.0 8.0 0.00 0.00 0.00 974.8
20260504174014 79 231 7.0 8.0 0.00 0.00 0.00 974.8
20260504173514 78 201 5.0 4.0 0.00 0.00 0.00 974.8
20260504173015 78 255 4.0 6.0 0.00 0.00 0.00 975.8
20260504172514 78 145 6.0 4.0 0.00 0.00 0.00 975.8
20260504172014 78 229 7.0 6.0 0.00 0.00 0.00 975.8
20260504171534 78 210 5.0 5.0 0.00 0.00 0.00 975.8
20260504171023 78 236 6.0 6.0 0.00 0.00 0.00 975.8
20260504170515 78 234 6.0 6.0 0.00 0.00 0.00 975.8
20260504151013 72 209 3.0 0.0 0.00 0.00 0.00 976.8
20260504150514 71 184 4.0 5.0 0.00 0.00 0.00 976.8
20260504141014 67 222 0.0 4.0 0.00 0.00 0.00 976.8
20260504140513 67 219 4.0 6.0 0.00 0.00 0.00 976.8
20260504130513 58 210 0.0 0.0 0.00 0.00 0.00 976.8
20260504110513 47 217 0.0 0.0 0.00 0.00 0.00 976.8
20260504100513 47 242 0.0 0.0 0.00 0.00 0.00 976.8